Location: Coupvray
(48.8929°N, 2.7967°E)
Time: 09:58:11
(UTC+00:00)

Cosmos 1818 - Pass Details

Date: 14 July 2020
Orbit: 777 x 796 km, 65.0° (Epoch: 05 August)

Event Time Altitude Azimuth Distance (km) Brightness Sun altitude
Rises 02:57:44 0° 319° (NW) 3,309 6.9 -8.6°
Reaches altitude 10° 03:00:11 10° 317° (NW) 2,376 6.1 -8.3°
Maximum altitude 03:05:37 68° 236° (SW) 859 3.6 -7.7°
Drops below altitude 10° 03:10:59 10° 155° (SSE) 2,357 5.8 -7.1°
Sets 03:13:24 0° 152° (SSE) 3,281 6.6 -6.8°
